Overview Statistics Trail Chart Weather Telemetry Raw packets
 

This is the latest recevied weather packets stored in our database for station/object KI5NXU. If no packets are shown the sender has not sent any weather packets the latest 10 day(s).

<< 50 51 52 53 54 55 56 >>
Time Temp. Humidity Pressure Rain* Wind** Luminosity Snow
1788026115 36.67° C 34% 1016.9 hPa 0 mm - 743 W/m² -
1788025803 37.78° C 33% 1016.8 hPa 0 mm - 737 W/m² -
1788025502 37.78° C 34% 1017 hPa 0 mm - 746 W/m² -
1788025198 36.67° C 35% 1017 hPa 0 mm - 764 W/m² -
1788024892 36.11° C 42% 1017.2 hPa 0 mm - 774 W/m² -
1788024589 36.67° C 38% 1017.3 hPa 0 mm - 761 W/m² -
1788024289 36.67° C 38% 1017.3 hPa 0 mm - 745 W/m² -
1788023984 36.11° C 44% 1017.4 hPa 0 mm - 742 W/m² -
1788023679 35.56° C 45% 1017.4 hPa 0 mm - 734 W/m² -
1788023375 35° C 44% 1017.2 hPa 0 mm - 717 W/m² -
1788023075 35° C 47% 1017.4 hPa 0 mm - 717 W/m² -
1788022773 35° C 49% 1017.5 hPa 0 mm - 750 W/m² -
1788022472 34.44° C 52% 1017.4 hPa 0 mm - 757 W/m² -
1788022166 34.44° C 50% 1017.6 hPa 0 mm - 747 W/m² -
1788021860 33.89° C 52% 1017.5 hPa 0 mm - 745 W/m² -
1788021559 33.89° C 51% 1017.7 hPa 0 mm - 747 W/m² -
1788021258 33.89° C 52% 1017.7 hPa 0 mm - 725 W/m² -
1788020953 33.33° C 53% 1017.8 hPa 0 mm - 709 W/m² -
1788020648 32.78° C 54% 1017.7 hPa 0 mm - 702 W/m² -
1788020344 32.78° C 55% 1017.6 hPa 0 mm - 711 W/m² -
1788020040 32.78° C 54% 1017.8 hPa 0 mm - 702 W/m² -
1788019739 32.22° C 56% 1017.5 hPa 0 mm - 678 W/m² -
1788019439 32.22° C 55% 1017.8 hPa 0 mm - 683 W/m² -
1788019136 31.67° C 57% 1018 hPa 0 mm - 681 W/m² -
1788018831 31.67° C 57% 1017.8 hPa 0 mm - 655 W/m² -

* Rain latest hour (hover to see other rain measurements)
** Current wind speed in m/s (hover to see current wind gust speed)